Dewpoint
55 55 56 56 55 56 55 55 55 55 55 55 55 55 55 55 55 55 55 56 56 55 55 55 55 55 55 55 55 54 56 51 50 47 44 39 47 54 63 59 63 63 66 62 62 56 53 50 48 52 57 56 53 56 58 60 61 62 60 58 55 56 56 57 57 58 64 62 64 65 65 63 62 66 65 65 64 63 62 62 62 62 64 64 66 66 66 67
55 55 55 55 55 55 55 55 55 55 56 55 55 55 55 55 55 56 56 55 55 55 55 55 55 55 55 55 55 55 54 51 47 47 44 42 55 58 63 62 66 64 65 59 55 51 49 48 46 48 50 51 51 54 57 57 60 59 59 58 55 57 56 59 59 60 62 63 64 65 66 64 64 64 64 62 62 62 61 61 62 63 64 66 66 66 66 67
55 55 55 55 55 55 55 55 55 55 55 55 56 55 55 54 55 55 55 55 55 55 55 55 55 55 55 55 55 56 53 48 48 34 20 54 57 60 62 66 68 65 56 55 54 50 45 46 45 47 49 50 52 54 55 55 59 59 58 55 56 58 59 62 61 61 64 66 64 64 65 65 66 64 66 62 60 61 60 59 61 61 62 63 65 65 66 66
55 55 55 55 55 55 55 55 55 56 56 55 55 55 55 54 55 55 55 55 55 55 55 55 55 55 55 55 55 55 51 50 13 16 32 61 62 62 63 63 68 65 54 55 51 46 47 47 43 46 50 52 52 53 55 57 56 59 57 56 56 59 61 61 61 62 64 65 65 65 66 65 67 66 65 62 60 60 62 62 60 61 61 63 64 65 65 65
55 55 55 55 55 55 55 55 55 56 56 55 55 55 55 55 55 55 55 55 55 55 55 55 55 55 55 55 56 54 52 11 2 36 42 69 65 63 65 64 64 59 54 48 45 45 45 43 41 48 53 53 53 53 54 56 56 59 57 58 57 58 60 61 61 63 64 66 66 66 64 63 67 65 63 62 59 58 61 62 61 62 62 63 64 65 65 65
55 55 55 55 55 55 55 55 55 55 55 55 55 55 55 55 55 54 55 55 55 55 55 55 55 55 55 55 54 54 28 -2 16 22 56 72 66 67 66 67 66 51 47 44 42 42 42 43 44 48 53 54 53 53 53 54 57 54 56 57 57 58 59 62 62 63 63 64 65 65 67 66 65 64 63 62 62 63 65 63 63 64 64 64 64 65 64 65
55 55 55 55 55 55 55 55 55 55 55 55 55 55 55 55 54 54 55 54 54 54 55 55 55 55 54 55 53 49 20 19 31 28 66 71 65 66 68 68 62 46 45 42 41 38 38 42 44 47 53 54 53 53 53 52 56 55 54 54 55 55 58 63 62 63 63 65 65 68 67 65 64 62 64 64 66 64 64 64 65 65 65 65 65 65 64 65
55 55 55 55 55 55 55 55 55 55 55 55 55 55 55 54 54 54 54 54 54 55 55 55 55 54 55 52 48 29 17 5 15 36 73 67 61 63 66 55 41 45 43 40 40 36 37 42 41 50 52 53 52 52 51 53 52 53 53 52 54 58 60 63 63 63 63 65 67 67 65 65 65 63 64 65 64 64 65 65 65 65 65 64 65 65 65 65
55 55 55 55 55 55 55 55 55 55 55 55 55 54 54 55 54 54 54 54 55 55 55 55 55 54 54 54 35 -2 -6 11 33 61 67 60 61 57 54 47 38 42 41 41 41 40 36 40 45 49 50 52 50 51 47 44 42 49 50 51 60 62 63 63 63 63 64 65 66 65 65 66 66 66 65 66 65 65 66 66 65 65 64 64 64 65 65 65
55 55 55 55 55 55 55 55 55 55 55 55 55 55 54 54 54 54 54 54 55 55 55 55 55 55 54 50 25 -14 0 35 60 62 61 61 59 53 51 46 36 36 39 40 41 40 34 40 45 50 49 50 46 45 41 42 38 40 43 49 59 63 63 63 63 64 64 64 65 64 64 64 66 66 60 66 65 64 65 65 65 64 64 64 64 65 66 65
55 55 55 54 55 55 55 55 55 55 55 55 54 54 54 54 54 54 54 54 55 55 55 56 55 55 47 49 -4 -17 2 55 58 59 60 59 54 49 47 40 35 33 34 35 40 41 41 41 44 45 46 46 45 42 40 39 34 27 52 62 63 64 64 64 65 64 63 64 66 65 64 65 65 64 63 65 66 65 65 64 63 64 64 64 64 65 66 66
55 55 55 55 55 55 55 55 55 55 55 54 54 54 53 53 53 54 54 54 54 55 56 55 56 53 52 44 28 -0 35 46 57 58 56 51 46 49 47 37 34 32 32 33 36 42 42 42 43 46 44 43 43 43 39 35 35 31 57 58 62 63 63 64 62 63 64 62 66 65 63 62 62 62 66 65 65 65 65 64 64 63 63 64 64 65 66 65
55 55 55 55 55 55 55 55 55 55 54 54 53 53 53 54 54 54 54 54 54 55 57 56 54 53 48 15 21 32 32 32 48 57 50 44 44 49 45 34 29 27 28 30 30 38 33 38 40 46 42 43 43 41 42 39 34 47 57 59 60 61 61 63 63 64 63 64 65 65 55 58 60 64 66 65 65 66 65 63 63 63 63 63 64 64 65 65
55 55 55 55 55 55 55 55 55 54 54 54 54 53 53 53 53 53 53 54 55 56 56 57 53 52 35 13 8 18 29 37 51 54 49 46 41 42 44 34 28 28 26 26 25 27 27 30 32 35 40 41 42 45 41 40 56 57 59 59 58 57 58 62 62 62 61 64 65 63 54 58 61 63 67 66 66 65 63 62 62 63 63 63 63 64 64 65
54 55 55 55 55 55 55 55 54 54 54 54 53 53 53 52 53 54 54 55 56 56 57 57 54 50 41 35 36 43 49 42 41 51 51 43 40 40 41 38 31 30 28 25 27 27 25 29 32 40 42 42 42 39 33 49 58 59 53 52 56 53 57 62 63 61 59 61 63 60 56 56 60 62 66 66 66 65 63 62 63 62 62 62 63 63 63 64
55 55 55 55 55 55 55 55 54 54 54 53 53 53 53 53 54 55 55 56 56 57 56 51 52 47 39 32 29 43 47 41 37 43 52 44 39 39 39 37 32 31 29 27 27 26 26 27 33 34 40 39 40 37 33 53 55 57 53 51 52 54 57 59 61 62 60 61 63 60 54 58 60 63 66 67 66 65 63 62 62 62 63 62 63 63 63 64
55 55 55 55 55 55 55 54 54 54 54 53 53 53 53 55 56 57 57 58 57 56 53 49 50 52 8 21 30 35 32 38 45 44 49 47 38 36 36 37 34 32 31 30 28 24 26 24 38 39 33 40 31 31 30 43 51 54 49 52 54 52 55 54 60 62 62 61 59 60 57 57 61 63 65 66 66 65 63 62 63 62 63 63 63 63 63 64
55 55 55 55 55 55 54 55 54 54 53 53 53 53 52 56 57 58 58 57 56 55 54 54 49 44 25 25 19 31 34 35 39 45 47 43 36 35 34 30 30 32 29 23 23 24 31 32 36 40 32 32 35 31 24 28 45 50 50 53 53 55 53 53 55 58 61 61 58 58 57 58 61 62 64 64 65 65 63 62 62 62 62 62 61 62 63 63
55 55 55 55 55 55 54 54 54 54 53 53 55 54 54 55 55 54 50 53 45 43 35 42 38 26 14 23 28 31 33 36 38 40 40 36 34 32 28 28 31 27 19 21 20 28 34 34 36 40 39 33 33 31 23 24 45 51 51 51 54 53 55 55 57 59 60 58 57 57 56 57 61 61 63 63 64 65 65 64 63 62 62 62 62 62 62 63
55 55 55 55 55 55 54 54 54 53 52 50 54 53 53 42 37 41 50 50 44 36 31 32 38 35 34 33 31 32 34 37 35 35 40 39 30 26 27 27 25 24 14 14 21 25 35 37 40 40 39 35 27 27 28 23 37 49 51 52 52 53 54 57 57 58 60 58 57 57 57 58 60 61 62 63 63 64 64 65 64 62 62 62 62 62 63 64
55 55 55 55 55 55 54 54 54 53 51 50 51 41 35 36 33 32 33 39 46 45 41 38 37 35 32 34 34 36 32 34 35 35 39 39 27 25 25 23 21 15 15 22 22 31 36 39 39 39 36 34 31 24 23 20 30 45 48 49 52 52 52 56 58 58 61 58 58 59 58 59 61 61 62 63 63 61 63 64 64 62 62 62 63 63 63 63
55 55 55 55 54 54 54 54 53 52 51 50 50 36 35 34 37 36 34 32 32 42 44 42 42 38 39 38 37 37 37 33 32 33 36 32 27 25 26 26 21 13 28 30 31 33 37 39 41 37 30 27 26 22 20 19 18 18 35 35 42 49 54 57 58 60 60 60 57 57 57 57 60 62 62 62 61 61 63 65 64 64 62 62 63 64 64 63
55 55 55 55 54 54 53 53 51 51 49 49 43 42 40 39 41 39 37 34 33 34 40 41 37 39 38 40 40 37 35 31 31 32 35 32 29 29 27 27 21 25 30 29 27 34 36 38 37 31 29 26 21 21 20 19 19 20 17 25 26 45 48 50 57 58 57 56 55 57 56 58 60 62 62 63 62 63 65 65 65 66 63 62 62 63 63 63
55 55 54 54 54 53 53 51 50 50 50 46 42 41 40 41 40 37 36 32 31 36 33 36 35 36 35 33 38 36 34 33 31 30 38 32 30 32 28 28 26 28 28 31 32 35 35 29 32 29 27 27 24 19 21 24 23 16 17 17 19 42 46 52 55 58 59 58 56 57 57 58 60 59 60 62 63 64 64 64 66 67 66 66 65 64 64 63
55 55 55 54 53 53 51 50 49 47 47 47 44 45 45 48 46 39 34 34 30 30 31 34 38 36 34 37 40 34 30 32 33 33 40 32 31 31 30 30 26 26 28 30 35 37 32 29 29 28 26 27 25 21 20 24 24 22 16 18 16 28 55 56 57 57 56 56 57 56 53 53 56 58 58 61 62 62 64 63 64 65 65 66 64 62 63 64
55 55 54 54 54 52 51 47 45 44 43 36 38 43 45 43 42 41 34 24 17 16 14 16 24 17 33 28 39 34 29 26 28 31 38 32 41 31 30 28 30 24 28 29 32 32 34 28 28 27 26 26 26 26 24 24 24 24 23 17 18 31 52 56 57 55 49 48 53 58 49 46 55 55 57 59 61 61 63 63 63 65 65 65 65 64 62 62
55 54 54 54 53 51 42 32 42 44 32 33 41 44 43 42 49 38 33 24 14 12 10 11 15 15 17 15 27 26 25 22 26 36 38 44 33 36 28 27 28 29 29 30 37 33 27 26 26 27 26 25 25 26 24 24 24 24 19 15 27 42 51 54 55 50 50 54 57 57 53 48 49 53 57 58 59 60 61 62 64 64 65 64 65 65 63 61
54 54 53 53 52 51 46 48 42 35 30 34 44 43 44 48 45 40 28 12 7 14 9 12 13 15 16 17 21 20 18 20 25 29 30 36 36 31 29 26 24 28 27 32 31 30 27 25 25 25 26 25 26 26 25 23 25 22 18 24 34 36 46 51 49 49 52 49 51 54 54 48 46 53 57 57 57 58 59 60 61 64 64 65 65 65 64 62
54 54 53 52 52 50 50 49 44 36 37 43 44 43 44 46 39 37 29 9 11 9 16 8 16 12 15 16 16 17 18 19 16 21 28 31 31 30 27 28 27 27 28 30 33 25 25 27 26 26 26 25 25 25 23 22 24 22 29 40 44 46 49 48 46 51 54 46 43 50 51 45 45 52 55 58 57 57 58 59 60 62 64 65 66 66 64 64
54 53 53 52 50 51 51 50 46 41 48 46 44 46 44 39 35 24 17 8 16 9 12 12 12 10 17 14 13 15 16 17 22 31 31 31 29 28 29 31 27 27 26 27 28 27 27 31 28 25 26 26 25 25 22 23 24 24 38 42 46 48 50 50 50 50 49 43 40 47 50 46 40 51 53 55 55 56 57 59 60 61 63 65 67 65 64 64
53 52 52 51 49 47 49 36 38 45 48 48 47 41 38 38 25 21 12 12 14 13 15 12 14 13 13 13 10 12 16 14 21 32 29 29 28 28 28 27 28 26 27 26 26 25 25 26 30 26 27 23 24 23 23 22 22 24 33 40 43 47 49 49 48 50 43 39 45 48 49 49 41 46 54 57 58 58 58 58 59 60 61 64 66 64 64 64
52 51 51 51 50 52 38 28 37 43 48 48 44 40 36 23 25 16 13 22 12 14 13 16 16 12 14 11 10 10 11 15 20 29 27 27 28 26 24 26 28 25 23 25 24 24 24 25 23 24 39 23 22 20 19 21 22 21 24 38 24 42 42 40 48 41 40 35 44 49 51 49 47 48 53 56 57 58 59 58 58 59 61 63 67 65 64 64
51 51 50 51 52 50 49 47 49 50 49 47 40 37 27 25 16 19 20 16 14 16 14 17 17 12 10 9 12 11 13 11 16 19 23 22 27 24 27 23 26 26 23 28 25 22 21 22 22 23 24 29 23 20 17 18 21 21 20 33 27 37 35 33 40 40 40 43 43 49 51 47 49 49 55 55 57 58 58 60 59 60 61 62 66 66 64 65
50 50 51 51 51 50 50 54 51 48 43 46 40 28 27 17 16 39 28 23 14 15 19 18 18 19 16 11 16 14 14 18 20 22 20 24 25 24 19 21 18 21 24 24 20 20 19 18 19 22 20 27 23 21 18 18 19 20 20 25 25 36 31 32 37 30 26 38 43 50 47 47 44 51 57 58 59 60 58 58 60 61 62 62 63 64 64 66
50 50 50 51 52 52 52 51 51 49 44 37 30 31 26 23 24 19 18 15 15 17 18 19 19 18 17 18 19 17 15 21 19 20 19 23 21 25 22 18 19 20 21 22 23 22 18 18 20 23 24 24 21 22 20 17 18 19 20 21 24 28 39 22 39 31 38 41 44 49 46 49 49 56 58 60 60 60 60 58 59 61 62 62 62 63 64 66
49 50 49 48 51 50 51 51 50 48 38 33 30 28 22 19 17 21 18 18 18 18 19 18 18 17 18 18 22 19 20 24 21 21 22 22 21 16 18 21 16 18 18 22 27 21 22 18 21 24 24 22 21 22 20 18 17 19 19 19 18 28 34 39 41 41 41 37 41 48 46 49 51 51 56 60 60 60 59 57 58 60 61 62 61 62 63 64
51 51 44 47 47 50 51 50 48 44 43 35 30 20 26 31 24 20 33 18 16 20 20 13 16 18 18 16 19 20 20 18 19 19 19 20 17 16 16 16 18 17 19 20 20 22 19 18 22 23 21 22 24 24 20 20 21 19 17 19 29 30 28 30 28 40 37 30 40 45 40 46 44 42 57 57 58 59 60 59 58 61 62 61 61 61 63 64
51 51 54 48 40 49 51 50 44 44 40 38 35 40 40 18 25 23 21 18 19 22 22 24 19 21 20 19 16 20 19 16 18 21 17 18 15 17 16 16 17 17 18 20 20 22 21 17 19 22 23 23 24 23 21 24 26 18 14 24 17 22 20 36 33 33 33 33 39 43 44 45 47 45 53 55 57 58 60 61 61 60 61 62 61 62 64 65
51 44 41 37 42 48 49 49 43 44 40 32 32 26 31 31 33 23 21 20 19 22 21 23 19 22 22 20 21 20 20 15 18 22 20 17 16 18 21 18 17 18 21 20 22 24 25 20 20 24 22 22 23 22 22 20 24 25 24 19 24 21 23 27 26 37 31 37 37 41 45 43 48 48 53 56 58 60 60 61 60 61 62 62 62 62 63 64
41 40 32 39 45 50 51 45 39 41 36 24 30 31 30 25 24 23 17 22 20 21 21 24 23 21 24 22 22 18 23 20 17 17 18 17 16 18 22 22 19 21 21 27 26 25 23 31 21 19 23 22 22 23 20 21 20 20 20 19 22 26 27 28 33 34 30 39 36 39 40 43 51 55 57 57 59 59 61 62 62 62 63 63 63 63 63 63
46 42 38 40 42 46 41 37 33 30 32 26 31 27 28 26 23 15 17 20 22 23 21 22 23 22 24 23 21 24 24 24 19 16 16 19 18 22 23 24 25 22 20 21 26 29 31 26 24 24 19 20 21 24 23 23 23 20 19 20 19 22 25 22 27 39 41 38 37 35 37 46 51 55 57 57 59 60 61 61 61 62 63 64 64 64 64 64
46 35 33 40 44 40 35 30 31 33 29 24 20 25 21 43 15 16 18 20 21 20 24 25 26 24 26 25 24 27 26 24 24 19 19 19 21 21 23 25 28 25 21 24 25 29 33 31 30 21 21 20 22 24 30 29 23 19 19 20 21 23 28 22 23 34 42 43 43 44 36 45 53 56 57 58 59 60 61 61 61 61 62 63 65 65 65 65
42 33 39 48 42 38 40 33 45 36 26 23 28 17 19 15 15 16 22 23 23 22 22 21 23 24 26 26 26 26 29 23 24 18 18 20 23 24 25 26 32 33 31 25 26 30 45 37 34 21 30 27 27 26 26 24 22 19 20 21 19 20 22 21 24 38 37 44 40 39 36 48 53 58 57 58 59 59 60 61 60 61 62 63 63 64 65 65
43 43 41 46 42 37 32 22 25 27 33 35 22 15 16 16 20 22 23 24 25 27 22 23 22 26 29 30 30 29 30 22 23 23 22 24 24 25 28 26 32 37 40 27 31 34 35 41 37 25 23 21 20 23 21 27 26 24 23 31 30 22 24 36 43 46 41 43 43 36 30 45 53 57 57 58 57 57 58 59 60 59 60 61 61 62 62 63
46 43 45 47 44 32 24 29 30 28 27 23 22 19 17 17 16 20 22 26 25 30 25 23 26 28 28 31 31 31 29 27 25 24 21 25 23 29 25 27 29 35 45 45 48 44 36 37 41 26 20 18 19 20 25 26 27 27 29 35 38 28 41 39 32 42 33 46 45 39 40 50 54 56 57 57 56 57 58 58 58 59 60 60 60 60 61 62
37 34 33 35 40 29 31 31 24 23 30 30 23 19 17 17 17 20 20 24 26 30 29 31 30 30 31 30 28 27 27 27 26 30 30 25 26 26 25 29 26 35 50 47 45 39 37 38 40 36 30 26 28 31 31 34 31 35 36 39 39 41 39 38 45 39 27 45 43 45 47 51 52 54 55 56 56 56 57 58 58 59 59 60 60 60 61 61
43 39 38 38 36 32 28 36 37 27 22 32 31 20 22 23 21 22 25 26 27 29 28 25 26 27 29 29 32 28 32 27 30 30 28 26 28 28 31 29 23 36 53 39 41 37 42 37 36 38 34 32 30 29 27 32 30 35 38 40 42 44 43 38 33 28 50 43 37 50 53 52 51 53 55 55 56 56 57 57 58 58 59 59 60 60 61 61
36 38 43 46 27 34 32 33 41 32 30 26 28 23 23 23 23 25 23 24 25 31 28 27 22 24 32 33 34 27 33 34 31 26 30 28 31 25 21 21 21 34 38 29 35 36 36 32 40 34 30 30 29 28 27 27 29 33 39 42 43 45 44 37 45 42 48 35 28 49 53 52 52 52 55 55 55 56 56 57 57 58 58 59 60 59 59 60
44 43 44 47 37 33 38 42 41 34 37 33 36 25 23 22 21 20 23 26 28 28 29 27 22 22 26 34 34 32 37 26 25 31 31 26 27 31 23 25 22 25 29 32 34 40 37 33 36 35 34 30 32 29 29 28 30 35 39 43 44 45 47 47 47 46 46 50 45 51 54 52 52 53 55 55 56 56 56 57 57 58 57 59 59 59 58 59
44 43 45 47 48 48 48 40 31 30 26 36 29 22 30 26 20 21 21 27 31 27 33 22 21 23 24 29 42 29 25 27 26 25 29 29 25 33 25 26 23 25 28 32 33 37 32 34 42 36 43 37 30 32 30 29 31 36 41 45 45 44 45 46 47 48 50 51 50 51 52 51 53 55 54 55 56 56 56 57 56 57 57 57 58 57 58 59
49 48 49 48 45 44 49 40 31 37 26 31 29 26 27 24 24 23 26 28 29 32 29 22 22 27 28 28 28 24 26 31 31 25 24 26 23 23 25 25 24 25 29 32 33 39 35 32 33 38 33 36 31 32 29 29 28 32 39 44 45 44 44 46 47 48 49 50 51 51 50 50 53 55 55 55 55 55 55 56 57 57 56 58 57 57 57 58
52 51 52 50 46 46 42 39 30 27 21 27 28 32 28 25 25 30 31 29 33 35 28 25 31 26 30 31 26 25 23 27 25 25 26 23 28 33 30 27 27 29 29 29 36 34 38 31 30 30 29 36 36 36 33 29 28 26 36 42 46 46 46 47 48 49 50 50 50 48 50 52 53 55 54 54 54 55 55 55 56 57 57 56 56 56 57 58